sat.trackr.live / text

‹ back to catalog

STARLINK-3802

NORAD 52286 · 2022-041AB

PAYLOAD ACTIVE UNKNOWN

§ Identity

Operator
Country
US
Launch date
2022-04-21
Launch site
AFETR
Launch vehicle
Mass (kg)
RCS (m²)

Purposes: comms

External: N2YO · Heavens-Above · Gunter

§ Orbital elements

Epoch: 2026-09-20T01:34:12.597312Z

Period
93.85 min
Inclination
53.1588°
Eccentricity
0.0001224
Mean motion
15.34386646 rev/d
Perigee alt
461.9 km
Apogee alt
463.6 km
Semi-major
6,840.9 km
B*
1.1181e-5
RAAN
293.4129°
Arg perigee
88.1364°
Mean anomaly
271.9779°
Rev number
24,402

§ Raw data

STARLINK-38021 52286U 22041AB  26263.06542358  .00000001  00000+0  11181-4 0  99902 52286  53.1588 293.4129 0001224  88.1364 271.9779 15.34386646244024

JSON: /api/v1/satellites/52286 · /tle

For live sub-satellite position, see the globe view (requires WebGL).

§ Visibility from observer

Set your observer location to see the next 7 days of passes ≥ 10°. The values pass through the URL so the page stays shareable.

No JS? Fill the form by hand. The geolocation button needs JavaScript.